GSAT0219 (PRN E36)

Last updated on Oct. 24, 2020, 5:55 a.m. UTC

1 43566U 18060C   20297.48637598 -.00000093  00000-0  00000-0 0  9992
2 43566  56.8910  37.5490 0003730 248.7596 111.2067  1.70476063 14026
UTC
Height (km)
Latitude
Longitude
Inclination
Orbital Period
UTC large
Height (km)
Speed (km/s)
/
Latitude / Longitude
Inclination (degrees)
Orbital Period (minutes)
Azimuth
Elevation
Range (km)
Doppler Factor
iOS Compass Heading
iOS Angle

Next 30 passes for location: Hong Kong

Rise time Rise Azimuth (degrees) Set time Set Azimuth (degrees) Duration Max altitude (degrees)

No matching passes for this satellites